Weather History for KPRG - July, 2013

Change the Weather History Date:

Monday, July 22, 2013

  Actual Average (KHUF) Record (KHUF)
Temperature  
Mean Temperature 76 °F 75 °F  
Max Temperature 83 °F 85 °F 98 °F (2012)
Min Temperature 69 °F 64 °F 52 °F (1966)
Degree Days  
Heating Degree Days 0 0  
Month to date heating degree days 0  
Since 1 June heating degree days 13  
Since 1 July heating degree days 0  
Cooling Degree Days 10 10  
Month to date cooling degree days 227  
Year to date cooling degree days 548  
Since 1 June cooling degree days 462  
Growing Degree Days 26 (Base 50)    
Moisture  
Dew Point 71 °F    
Average Humidity 89    
Maximum Humidity 100    
Minimum Humidity 67    
Precipitation  
Precipitation 0.98 in 0.19 in 1.72 in (1990)
Month to date precipitation 3.57  
Year to date precipitation 26.45  
Sea Level Pressure  
Sea Level Pressure 29.84 in    
Wind  
Wind Speed 3 mph (WNW)    
Max Wind Speed 8 mph    
Max Gust Speed -    
Visibility 8 miles    
Events Rain , Thunderstorm    
T = Trace of Precipitation, MM = Missing Value Source: NWS Daily Summary

Daily Weather History Graph

Daily Weather History Graph

Search for Another Location

Airport or City:

Trip Planner

Search our weather history database for the weather conditions in past years. The results will help you decide how hot, cold, wet, or windy it might be!

Date:

Astronomy

Jul. 22, 2013 Rise Set
Actual Time 5:41 AM CDT 8:12 PM CDT
Civil Twilight 5:10 AM CDT 8:43 PM CDT
Nautical Twilight 4:31 AM CDT 9:22 PM CDT
Astronomical Twilight 3:48 AM CDT 10:04 PM CDT
Moon 7:58 PM CDT (7/22) 5:36 AM CDT (7/22)
Length of Visible Light 15h 33m
Length of Day
14h 31m
Full, 100% of the Moon is Illuminated
Jul 22
Full
Jul 22
Full
Jul 29
Last Quarter
Aug 6
New
Aug 14
First Quarter

Hourly Weather History & Observations

Time (CDT) Temp. Heat Index Dew Point Humidity Pressure Visibility Wind Dir Wind Speed Gust Speed Precip Events Conditions
12:15 AM 69.8 °F - 69.1 °F 98% 29.89 in 1.5 mi Calm Calm - N/A Rain , Thunderstorm Heavy Thunderstorms and Rain
12:35 AM 69.8 °F - 69.6 °F 99% 29.88 in 5.0 mi Calm Calm - 0.01 in Rain , Thunderstorm Heavy Thunderstorms and Rain
12:55 AM 69.8 °F - 69.8 °F 100% 29.87 in 3.0 mi Calm Calm - 0.02 in Rain , Thunderstorm Thunderstorms and Rain
1:15 AM 70.0 °F - 69.8 °F 99% 29.87 in 4.0 mi Calm Calm - 0.01 in Rain , Thunderstorm Light Thunderstorms and Rain
1:35 AM 70.2 °F - 70.0 °F 99% 29.86 in - East 3.5 mph - 0.02 in Rain , Thunderstorm Light Thunderstorms and Rain
1:55 AM 70.7 °F - 70.3 °F 99% 29.85 in 4.0 mi East 5.8 mph - 0.02 in Rain , Thunderstorm Light Thunderstorms and Rain
2:15 AM 70.7 °F - 70.7 °F 100% 29.85 in - ESE 4.6 mph - 0.01 in Rain , Thunderstorm Light Thunderstorms and Rain
2:35 AM 70.7 °F - 70.7 °F 100% 29.85 in 7.0 mi Calm Calm - 0.01 in Rain , Thunderstorm Thunderstorms and Rain
2:55 AM 70.7 °F - 70.2 °F 98% 29.85 in 3.0 mi SSE 3.5 mph - 0.02 in Rain , Thunderstorm Heavy Thunderstorms and Rain
3:15 AM 70.3 °F - 70.0 °F 99% 29.85 in 1.2 mi WNW 3.5 mph - 0.01 in Rain , Thunderstorm Heavy Thunderstorms and Rain
3:35 AM 70.0 °F - 69.8 °F 99% 29.84 in 2.0 mi Calm Calm - 0.03 in Rain , Thunderstorm Heavy Thunderstorms and Rain
3:55 AM 70.2 °F - 70.0 °F 99% 29.83 in 3.0 mi Calm Calm - 0.04 in Rain , Thunderstorm Heavy Thunderstorms and Rain
4:15 AM 70.2 °F - 70.2 °F 100% 29.82 in 2.5 mi SE 4.6 mph - 0.02 in Rain Heavy Rain
4:35 AM 70.0 °F - 70.0 °F 100% 29.82 in 4.0 mi SE 4.6 mph - 0.03 in Rain Light Rain
4:55 AM 70.0 °F - 70.0 °F 100% 29.82 in 7.0 mi SE 3.5 mph - 0.05 in Rain Light Rain
5:15 AM 70.0 °F - 70.0 °F 100% 29.82 in 7.0 mi SE 3.5 mph - 0.02 in   Overcast
5:35 AM 69.8 °F - 69.8 °F 100% 29.83 in 10.0 mi SSE 5.8 mph - 0.03 in   Overcast
5:55 AM 69.4 °F - 69.3 °F 99% 29.82 in 10.0 mi Calm Calm - 0.04 in   Overcast
6:15 AM 69.4 °F - 69.3 °F 99% 29.82 in 10.0 mi South 3.5 mph - 0.01 in   Overcast
6:35 AM 69.4 °F - 69.3 °F 99% 29.82 in 10.0 mi SSW 4.6 mph - 0.03 in   Overcast
6:55 AM 69.8 °F - 69.6 °F 99% 29.83 in 10.0 mi SW 8.1 mph - 0.05 in   Overcast
7:15 AM 70.0 °F - 70.0 °F 100% 29.83 in 10.0 mi SW 4.6 mph - 0.02 in   Overcast
7:35 AM 70.5 °F - 70.3 °F 99% 29.83 in 10.0 mi WSW 4.6 mph - 0.03 in   Overcast
7:55 AM 71.2 °F - 70.9 °F 99% 29.83 in 10.0 mi West 4.6 mph - 0.05 in   Overcast
8:35 AM 71.4 °F - 70.7 °F 98% 29.84 in 10.0 mi Calm Calm - 0.04 in   Overcast
9:35 AM 72.3 °F - 71.1 °F 96% 29.85 in 10.0 mi NNW 3.5 mph - 0.04 in   Overcast
9:55 AM 72.7 °F - 70.9 °F 94% 29.85 in 10.0 mi Calm Calm - 0.06 in   Overcast
10:15 AM 73.0 °F - 70.9 °F 93% 29.85 in 10.0 mi NNW 4.6 mph - 0.02 in   Overcast
10:35 AM 74.7 °F - 72.1 °F 92% 29.85 in 10.0 mi NW 6.9 mph - 0.04 in   Overcast
10:55 AM 73.2 °F - 71.1 °F 93% 29.85 in 10.0 mi North 5.8 mph - 0.06 in   Overcast
11:15 AM 73.9 °F - 71.6 °F 92% 29.85 in 10.0 mi ENE 3.5 mph - 0.02 in   Mostly Cloudy
11:35 AM 76.3 °F - 71.8 °F 86% 29.85 in 10.0 mi NNE 4.6 mph - 0.03 in   Mostly Cloudy
11:55 AM 76.1 °F - 71.6 °F 86% 29.86 in 10.0 mi North 3.5 mph - 0.05 in   Overcast
12:15 PM 75.6 °F - 71.2 °F 86% 29.86 in 10.0 mi North 4.6 mph - 0.02 in   Overcast
12:35 PM 76.6 °F - 71.4 °F 84% 29.87 in 10.0 mi NNW 8.1 mph - 0.03 in   Overcast
12:55 PM 76.8 °F - 71.4 °F 83% 29.86 in 10.0 mi NNW 5.8 mph - 0.05 in   Mostly Cloudy
1:15 PM 78.1 °F - 71.4 °F 80% 29.86 in 10.0 mi North 5.8 mph - 0.01 in   Scattered Clouds
1:35 PM 79.2 °F - 72.0 °F 78% 29.85 in 10.0 mi North 5.8 mph - 0.03 in   Clear
1:55 PM 80.1 °F 83.7 °F 71.6 °F 75% 29.85 in 10.0 mi North 5.8 mph - 0.05 in   Clear
2:15 PM 80.1 °F 83.7 °F 71.4 °F 75% 29.84 in 10.0 mi North 3.5 mph - 0.01 in   Scattered Clouds
2:35 PM 80.4 °F 83.9 °F 70.5 °F 72% 29.84 in 10.0 mi North 4.6 mph - 0.03 in   Scattered Clouds
2:55 PM 80.6 °F 84.1 °F 70.3 °F 71% 29.83 in 10.0 mi NNW 4.6 mph - 0.04 in   Mostly Cloudy
3:15 PM 81.7 °F 86.3 °F 71.8 °F 72% 29.84 in 10.0 mi North 5.8 mph - 0.02 in   Mostly Cloudy
3:35 PM 82.6 °F 87.3 °F 71.4 °F 69% 29.84 in 10.0 mi NNW 8.1 mph - 0.04 in   Mostly Cloudy
3:55 PM 81.7 °F 85.8 °F 71.1 °F 70% 29.84 in 10.0 mi NNW 6.9 mph - 0.06 in   Scattered Clouds
4:15 PM 82.8 °F 87.7 °F 71.6 °F 69% 29.84 in 10.0 mi NW 3.5 mph - 0.02 in   Scattered Clouds
4:35 PM 82.9 °F 88.0 °F 71.8 °F 69% 29.83 in 10.0 mi WNW 8.1 mph - 0.04 in   Scattered Clouds
4:55 PM 81.5 °F 85.9 °F 71.8 °F 72% 29.83 in 10.0 mi West 5.8 mph - 0.07 in   Scattered Clouds
5:15 PM 81.9 °F 86.6 °F 72.0 °F 72% 29.82 in 10.0 mi West 4.6 mph - 0.02 in   Mostly Cloudy
5:35 PM 82.4 °F 86.5 °F 70.3 °F 67% 29.82 in 10.0 mi WNW 6.9 mph - 0.04 in   Scattered Clouds
5:55 PM 81.7 °F 85.4 °F 70.3 °F 68% 29.82 in 10.0 mi West 6.9 mph - 0.06 in   Clear
6:15 PM 81.5 °F 85.5 °F 70.7 °F 70% 29.82 in 10.0 mi West 6.9 mph - 0.01 in   Clear
6:35 PM 81.3 °F 85.0 °F 70.2 °F 69% 29.82 in 10.0 mi West 5.8 mph - 0.03 in   Clear
6:55 PM 80.6 °F 84.4 °F 71.4 °F 73% 29.81 in 10.0 mi West 3.5 mph - 0.04 in   Clear
7:15 PM 79.5 °F - 72.1 °F 78% 29.81 in 10.0 mi Calm Calm - 0.01 in   Clear
7:35 PM 78.3 °F - 72.1 °F 81% 29.81 in 10.0 mi Calm Calm - 0.03 in   Clear
7:55 PM 76.5 °F - 72.1 °F 86% 29.81 in 10.0 mi Calm Calm - 0.04 in   Clear
8:15 PM 74.7 °F - 72.0 °F 91% 29.81 in 10.0 mi SW 4.6 mph - 0.01 in   Clear
8:35 PM 73.6 °F - 71.2 °F 92% 29.82 in 10.0 mi SSW 3.5 mph - 0.02 in   Clear
8:55 PM 72.5 °F - 70.7 °F 94% 29.82 in 10.0 mi SSW 3.5 mph - 0.03 in   Clear
9:15 PM 71.6 °F - 70.0 °F 95% 29.83 in 10.0 mi Calm Calm - 0.01 in   Clear
9:35 PM 70.2 °F - 69.1 °F 96% 29.84 in 10.0 mi Calm Calm - 0.02 in   Clear
9:55 PM 70.0 °F - 69.3 °F 98% 29.84 in 7.0 mi South 4.6 mph - 0.02 in   Clear
10:15 PM 69.8 °F - 69.1 °F 98% 29.84 in 7.0 mi Calm Calm - 0.01 in   Clear
10:35 PM 69.8 °F - 68.9 °F 97% 29.84 in 7.0 mi Calm Calm - 0.01 in   Clear
10:55 PM 69.3 °F - 68.5 °F 98% 29.84 in 7.0 mi SSW 5.8 mph - 0.01 in   Clear
11:15 PM 69.4 °F - 68.9 °F 98% 29.84 in 7.0 mi SSW 4.6 mph - 0.01 in   Clear
11:35 PM 69.6 °F - 68.7 °F 97% 29.85 in 7.0 mi SW 4.6 mph - 0.01 in   Clear
11:55 PM 69.8 °F - 68.9 °F 97% 29.86 in 10.0 mi SW 4.6 mph - 0.01 in   Clear